• En España
  • Lista de países
  • Para 7 días
  • Temperatura del agua
  • Mapa Satelital
  • El tiempo en el mapa
  • Informadores
  • user-avatar
    Iniciar sesión

    Tiempo cada hora Jambol

    Hoy, 19 Septiembre, Miércoles

    Tiempo Temperatura Precipitaciones Viento Presión Humedad
    00:00 +16°C° 0 mm 2 mps 756 mmHg 73%
    01:00 +16°C° 0 mm 2 mps 755 mmHg 75%
    02:00 +16°C° 0 mm 2 mps 755 mmHg 76%
    03:00 +16°C° 0 mm 2 mps 755 mmHg 78%
    04:00 +15°C° 0 mm 2 mps 755 mmHg 80%
    05:00 +15°C° 0 mm 1 mps 755 mmHg 81%
    06:00 +16°C° 0 mm 2 mps 755 mmHg 77%
    07:00 +18°C° 0 mm 2 mps 755 mmHg 73%
    08:00 +19°C° 0 mm 2 mps 755 mmHg 69%
    09:00 +21°C° 0 mm 2 mps 756 mmHg 60%
    10:00 +22°C° 0 mm 3 mps 756 mmHg 52%
    11:00 +25°C° 0 mm 3 mps 756 mmHg 44%
    12:00 +26°C° 0 mm 4 mps 755 mmHg 41%
    13:00 +27°C° 0 mm 4 mps 755 mmHg 38%
    14:00 +28°C° 0 mm 4 mps 755 mmHg 34%
    15:00 +27°C° 0 mm 4 mps 754 mmHg 37%
    16:00 +26°C° 0 mm 4 mps 754 mmHg 39%
    17:00 +26°C° 0 mm 4 mps 754 mmHg 41%
    18:00 +23°C° 0 mm 4 mps 754 mmHg 50%
    19:00 +21°C° 0 mm 3 mps 754 mmHg 59%
    20:00 +19°C° 0 mm 3 mps 754 mmHg 68%
    21:00 +18°C° 0 mm 2 mps 755 mmHg 72%
    22:00 +17°C° 0 mm 2 mps 755 mmHg 76%
    23:00 +17°C° 0 mm 2 mps 755 mmHg 79%

    Mañana, 20 Septiembre, Jueves

    Tiempo Temperatura Precipitaciones Viento Presión Humedad
    00:00 +16°C° 0 mm 2 mps 755 mmHg 80%
    01:00 +16°C° 0 mm 2 mps 755 mmHg 81%
    02:00 +16°C° 0 mm 2 mps 755 mmHg 82%
    03:00 +15°C° 0 mm 2 mps 754 mmHg 83%
    04:00 +15°C° 0 mm 2 mps 754 mmHg 83%
    05:00 +15°C° 0 mm 2 mps 754 mmHg 84%
    06:00 +16°C° 0 mm 2 mps 754 mmHg 78%
    07:00 +18°C° 0 mm 2 mps 754 mmHg 72%
    08:00 +19°C° 0 mm 2 mps 754 mmHg 66%
    09:00 +21°C° 0 mm 2 mps 754 mmHg 59%
    10:00 +24°C° 0 mm 3 mps 754 mmHg 52%
    11:00 +26°C° 0 mm 3 mps 754 mmHg 45%
    12:00 +27°C° 0 mm 4 mps 754 mmHg 42%
    13:00 +28°C° 0 mm 4 mps 754 mmHg 39%
    14:00 +29°C° 0 mm 4 mps 753 mmHg 36%
    15:00 +29°C° 0 mm 4 mps 753 mmHg 38%
    16:00 +28°C° 0 mm 4 mps 753 mmHg 40%
    17:00 +28°C° 0 mm 4 mps 753 mmHg 42%
    18:00 +25°C° 0 mm 4 mps 753 mmHg 51%
    19:00 +22°C° 0 mm 3 mps 753 mmHg 60%
    20:00 +20°C° 0 mm 2 mps 753 mmHg 69%
    21:00 +20°C° 0 mm 2 mps 753 mmHg 72%
    22:00 +19°C° 0 mm 2 mps 753 mmHg 75%
    23:00 +19°C° 0 mm 1 mps 753 mmHg 79%

    Pasado mañana, 21 Septiembre, Viernes

    Tiempo Temperatura Precipitaciones Viento Presión Humedad
    00:00 +19°C° 0 mm 1 mps 753 mmHg 79%
    01:00 +19°C° 0 mm 1 mps 753 mmHg 79%
    02:00 +19°C° 0 mm 1 mps 753 mmHg 79%
    03:00 +18°C° 0 mm 1 mps 753 mmHg 79%
    04:00 +18°C° 0 mm 1 mps 753 mmHg 78%
    05:00 +18°C° 0 mm 1 mps 753 mmHg 77%
    06:00 +19°C° 0 mm 1 mps 753 mmHg 71%
    07:00 +21°C° 0 mm 1 mps 753 mmHg 65%
    08:00 +22°C° 0 mm 1 mps 753 mmHg 58%
    09:00 +24°C° 0 mm 2 mps 753 mmHg 51%
    10:00 +26°C° 0 mm 2 mps 753 mmHg 43%
    11:00 +28°C° 0 mm 3 mps 753 mmHg 36%
    12:00 +29°C° 0 mm 3 mps 753 mmHg 34%
    13:00 +30°C° 0 mm 3 mps 753 mmHg 32%
    14:00 +31°C° 0 mm 3 mps 753 mmHg 30%
    15:00 +30°C° 0 mm 3 mps 752 mmHg 33%
    16:00 +29°C° 0 mm 3 mps 752 mmHg 35%
    17:00 +29°C° 0 mm 3 mps 752 mmHg 38%
    18:00 +27°C° 0 mm 3 mps 752 mmHg 46%
    19:00 +25°C° 0 mm 3 mps 752 mmHg 54%
    20:00 +23°C° 0 mm 2 mps 752 mmHg 61%
    21:00 +21°C° 0 mm 2 mps 752 mmHg 66%
    22:00 +22°C° 0 mm 1 mps 752 mmHg 70%
    23:00 +21°C° 0 mm 1 mps 753 mmHg 74%

    22 Septiembre, Sábado

    Tiempo Temperatura Precipitaciones Viento Presión Humedad
    00:00 +21°C° 0 mm 1 mps 753 mmHg 76%
    01:00 +20°C° 0 mm 1 mps 752 mmHg 78%
    02:00 +20°C° 0 mm 1 mps 752 mmHg 80%
    03:00 +19°C° 0 mm 1 mps 752 mmHg 80%
    04:00 +19°C° 0 mm 1 mps 752 mmHg 81%
    05:00 +19°C° 0 mm 1 mps 752 mmHg 82%
    06:00 +20°C° 0 mm 1 mps 752 mmHg 76%
    07:00 +19°C° 0 mm 0 mps 752 mmHg 69%
    08:00 +21°C° 0 mm 0 mps 753 mmHg 62%
    09:00 +25°C° 0 mm 1 mps 753 mmHg 53%
    10:00 +27°C° 0 mm 1 mps 753 mmHg 44%
    11:00 +29°C° 0 mm 1 mps 753 mmHg 35%
    12:00 +30°C° 0 mm 1 mps 752 mmHg 31%
    13:00 +31°C° 0 mm 1 mps 752 mmHg 28%
    14:00 +32°C° 0 mm 2 mps 751 mmHg 25%
    15:00 +31°C° 0 mm 2 mps 751 mmHg 26%
    16:00 +31°C° 0 mm 2 mps 751 mmHg 27%
    17:00 +30°C° 0 mm 2 mps 751 mmHg 28%
    18:00 +28°C° 0 mm 2 mps 751 mmHg 34%
    19:00 +26°C° 0 mm 2 mps 751 mmHg 39%
    20:00 +24°C° 0 mm 2 mps 751 mmHg 45%
    21:00 +23°C° 0 mm 1 mps 751 mmHg 47%
    22:00 +23°C° 0 mm 1 mps 752 mmHg 48%
    23:00 +22°C° 0 mm 1 mps 752 mmHg 50%

    23 Septiembre, Domingo

    Tiempo Temperatura Precipitaciones Viento Presión Humedad
    00:00 +22°C° 0 mm 1 mps 752 mmHg 51%
    01:00 +21°C° 0 mm 1 mps 751 mmHg 52%
    02:00 +21°C° 0 mm 1 mps 751 mmHg 53%
    03:00 +21°C° 0 mm 1 mps 751 mmHg 54%
    04:00 +20°C° 0 mm 1 mps 751 mmHg 55%
    05:00 +20°C° 0 mm 1 mps 751 mmHg 56%
    06:00 +20°C° 0 mm 2 mps 752 mmHg 53%
    07:00 +21°C° 0 mm 2 mps 752 mmHg 50%
    08:00 +24°C° 0 mm 3 mps 752 mmHg 46%
    09:00 +25°C° 0 mm 3 mps 753 mmHg 44%
    10:00 +27°C° 0 mm 4 mps 753 mmHg 41%
    11:00 +29°C° 0 mm 5 mps 753 mmHg 38%
    12:00 +29°C° 0 mm 5 mps 753 mmHg 38%
    13:00 +29°C° 0 mm 5 mps 753 mmHg 38%
    14:00 +29°C° 0 mm 5 mps 753 mmHg 38%
    15:00 +28°C° 0 mm 5 mps 753 mmHg 41%
    16:00 +27°C° 0 mm 5 mps 753 mmHg 43%
    17:00 +26°C° 0 mm 5 mps 753 mmHg 46%
    18:00 +23°C° 0 mm 5 mps 754 mmHg 53%
    19:00 +21°C° 0 mm 4 mps 754 mmHg 59%
    20:00 +19°C° 0 mm 4 mps 754 mmHg 66%
    21:00 +19°C° 0 mm 3 mps 755 mmHg 68%
    22:00 +18°C° 0 mm 3 mps 755 mmHg 69%
    23:00 +18°C° 0 mm 2 mps 755 mmHg 71%

    24 Septiembre, Lunes

    Tiempo Temperatura Precipitaciones Viento Presión Humedad
    00:00 +18°C° 0 mm 1 mps 754 mmHg 72%
    01:00 +18°C° 0 mm 1 mps 754 mmHg 74%
    02:00 +18°C° 0 mm 1 mps 754 mmHg 75%
    03:00 +16°C° 0 mm 1 mps 753 mmHg 76%
    04:00 +16°C° 0 mm 1 mps 753 mmHg 78%
    05:00 +16°C° 0 mm 1 mps 753 mmHg 79%
    06:00 +18°C° 0 mm 1 mps 752 mmHg 76%
    07:00 +18°C° 0 mm 2 mps 752 mmHg 73%
    08:00 +19°C° 0 mm 2 mps 751 mmHg 70%
    09:00 +21°C° 0 mm 2 mps 751 mmHg 63%
    10:00 +24°C° 0 mm 3 mps 751 mmHg 57%
    11:00 +26°C° 0 mm 3 mps 750 mmHg 50%
    12:00 +28°C° 0 mm 4 mps 750 mmHg 46%
    13:00 +29°C° 0 mm 4 mps 749 mmHg 41%
    14:00 +30°C° 0 mm 4 mps 748 mmHg 37%
    15:00 +30°C° 0 mm 3 mps 747 mmHg 37%
    16:00 +30°C° 0 mm 3 mps 747 mmHg 37%
    17:00 +30°C° 0 mm 3 mps 746 mmHg 37%
    18:00 +29°C° 0 mm 2 mps 746 mmHg 42%
    19:00 +27°C° 0 mm 2 mps 746 mmHg 47%
    20:00 +25°C° 0 mm 1 mps 747 mmHg 52%
    21:00 +24°C° 0 mm 3 mps 747 mmHg 52%
    22:00 +22°C° 0 mm 4 mps 748 mmHg 53%
    23:00 +22°C° 0 mm 5 mps 748 mmHg 54%
    Mostrar más